Wheeler AAF, HI

12:33 AM HST on April 28, 2017 (GMT -1000)
Wheeler Army Air Field

Weather History for PHHI - October, 2012

Change the Weather History Date:

Tuesday, October 16, 2012

  Actual Average Record
Temperature  
Mean Temperature 74 °F -  
Max Temperature 80 °F 80 °F 84 °F (1996)
Min Temperature 68 °F 67 °F 62 °F (2011)
Cooling Degree Days 9    
Growing Degree Days 24 (Base 50)    
Moisture  
Dew Point 66 °F    
Average Humidity 84    
Maximum Humidity 94    
Minimum Humidity 61    
Precipitation  
Precipitation 0.04 in - - ()
Sea Level Pressure  
Sea Level Pressure 29.98 in    
Wind  
Wind Speed 3 mph (NNW)    
Max Wind Speed 15 mph    
Max Gust Speed -    
Visibility 9 miles    
Events Rain    
Averages and records for this station are not official NWS values.
T = Trace of Precipitation, MM = Missing Value Source: NWS Daily Summary

Daily Weather History Graph

Daily Weather History Graph

Search for Another Location

Airport or City:

Trip Planner

Search our weather history database for the weather conditions in past years. The results will help you decide how hot, cold, wet, or windy it might be!

Date:

Astronomy

Oct. 16, 2012 Rise Set
Actual Time 6:28 AM HST 6:06 PM HST
Civil Twilight 6:06 AM HST 6:28 PM HST
Nautical Twilight 5:40 AM HST 6:54 PM HST
Astronomical Twilight 5:14 AM HST 7:20 PM HST
Moon 7:48 AM HST (10/16) 7:18 PM HST (10/16)
Length of Visible Light 12h 22m
Length of Day
11h 37m
Waxing Crescent, 3% of the Moon is Illuminated
Oct 16
Waxing Crescent
Oct 21
First Quarter
Oct 29
Full
Nov 6
Last Quarter
Nov 13
New

Hourly Weather History & Observations

Time (HST) Temp. Heat Index Dew Point Humidity Pressure Visibility Wind Dir Wind Speed Gust Speed Precip Events Conditions
12:44 AM 69.8 °F - 66.2 °F 88% 30.00 in 10.0 mi West 3.5 mph - N/A   Mostly Cloudy
12:47 AM 69.8 °F - 66.2 °F 88% 30.00 in 10.0 mi West 3.5 mph - N/A   Mostly Cloudy
12:52 AM 69.8 °F - 64.4 °F 83% 30.00 in 10.0 mi Calm Calm - N/A   Mostly Cloudy
12:55 AM 69.6 °F - 65.3 °F 86% 30.00 in 10.0 mi Calm Calm - N/A   Mostly Cloudy
1:06 AM 69.8 °F - 66.2 °F 88% 30.01 in 10.0 mi WSW 3.5 mph - N/A   Mostly Cloudy
1:11 AM 69.8 °F - 66.2 °F 88% 30.00 in 10.0 mi Variable 3.5 mph - N/A   Mostly Cloudy
1:22 AM 71.6 °F - 66.2 °F 83% 30.00 in 10.0 mi Calm Calm - N/A   Mostly Cloudy
1:55 AM 71.1 °F - 66.4 °F 85% 29.99 in 10.0 mi Calm Calm - N/A   Partly Cloudy
2:55 AM 69.6 °F - 65.7 °F 87% 29.99 in 10.0 mi Calm Calm - N/A   Clear
3:38 AM 68.0 °F - 64.4 °F 88% 29.98 in 10.0 mi NW 3.5 mph - N/A   Light Drizzle
3:54 AM 69.8 °F - 66.2 °F 88% 29.96 in 10.0 mi North 3.5 mph - N/A   Mostly Cloudy
3:55 AM 69.8 °F - 66.2 °F 88% 29.96 in 10.0 mi Calm Calm - 0.00 in   Mostly Cloudy
4:55 AM 69.1 °F - 66.2 °F 91% 29.95 in 10.0 mi North 4.6 mph - N/A   Clear
5:55 AM 68.4 °F - 65.1 °F 89% 29.97 in 10.0 mi Calm Calm - N/A   Partly Cloudy
6:55 AM 70.7 °F - 66.2 °F 86% 29.98 in 10.0 mi North 3.5 mph - N/A   Mostly Cloudy
6:57 AM 71.6 °F - 66.2 °F 83% 29.98 in 10.0 mi North 3.5 mph - N/A   Light Drizzle
7:11 AM 69.8 °F - 66.2 °F 88% 29.99 in 10.0 mi Calm Calm - N/A   Mostly Cloudy
7:15 AM 69.8 °F - 64.4 °F 83% 29.99 in 8.0 mi Calm Calm - N/A Rain Light Rain
7:23 AM 69.8 °F - 66.2 °F 88% 29.99 in 1.8 mi Calm Calm - N/A Rain Rain
7:30 AM 69.8 °F - 66.2 °F 88% 29.99 in 1.8 mi Calm Calm - N/A Rain Light Rain
7:32 AM 69.8 °F - 66.2 °F 88% 29.99 in 2.0 mi Calm Calm - N/A Rain Light Rain
7:37 AM 69.8 °F - 66.2 °F 88% 29.99 in 3.0 mi Calm Calm - N/A Rain Light Rain
7:44 AM 69.8 °F - 66.2 °F 88% 29.99 in 2.5 mi Calm Calm - N/A Rain Light Rain
7:54 AM 69.8 °F - 68.0 °F 94% 29.99 in 3.0 mi WNW 3.5 mph - N/A Rain Light Rain
7:55 AM 69.6 °F - 67.3 °F 92% 29.99 in 4.0 mi WNW 4.6 mph - 0.04 in Rain Light Rain
8:02 AM 69.8 °F - 68.0 °F 94% 29.99 in 9.0 mi West 6.9 mph - N/A   Mostly Cloudy
8:05 AM 69.8 °F - 68.0 °F 94% 29.99 in 10.0 mi WNW 5.8 mph - N/A   Mostly Cloudy
8:11 AM 69.8 °F - 68.0 °F 94% 29.99 in 9.0 mi WNW 5.8 mph - N/A Rain Light Rain
8:15 AM 69.8 °F - 68.0 °F 94% 29.99 in 5.0 mi West 5.8 mph - N/A Rain Light Rain
8:18 AM 69.8 °F - 68.0 °F 94% 29.99 in 5.0 mi West 5.8 mph - N/A Rain Light Rain
8:26 AM 69.8 °F - 68.0 °F 94% 30.00 in 10.0 mi West 5.8 mph - N/A   Mostly Cloudy
8:28 AM 69.8 °F - 68.0 °F 94% 30.00 in 7.0 mi West 5.8 mph - N/A Rain Light Rain
8:32 AM 69.8 °F - 68.0 °F 94% 30.01 in 6.0 mi West 6.9 mph - N/A Rain Light Rain
8:51 AM 71.6 °F - 68.0 °F 88% 30.01 in 10.0 mi West 4.6 mph - N/A   Light Drizzle
8:54 AM 71.6 °F - 68.0 °F 88% 30.01 in 10.0 mi WNW 3.5 mph - N/A   Mostly Cloudy
8:55 AM 71.1 °F - 68.7 °F 92% 30.01 in 10.0 mi WNW 3.5 mph - 0.00 in   Mostly Cloudy
9:29 AM 73.4 °F - 69.8 °F 88% 30.01 in 10.0 mi North 3.5 mph - N/A   Partly Cloudy
9:45 AM 73.4 °F - 69.8 °F 88% 30.01 in 10.0 mi NE 5.8 mph - N/A   Scattered Clouds
9:55 AM 73.8 °F - 69.4 °F 86% 30.01 in 10.0 mi ENE 4.6 mph - N/A   Mostly Cloudy
10:55 AM 77.2 °F - 68.2 °F 74% 29.99 in 10.0 mi East 6.9 mph - N/A   Partly Cloudy
11:55 AM 78.1 °F - 66.6 °F 68% 29.97 in 10.0 mi East 8.1 mph - N/A   Partly Cloudy
12:55 PM 79.7 °F - 66.4 °F 64% 29.96 in 10.0 mi ESE 6.9 mph - N/A   Partly Cloudy
1:17 PM 78.8 °F - 66.2 °F 65% 29.95 in 10.0 mi East 8.1 mph - N/A   Mostly Cloudy
1:20 PM 78.8 °F - 66.2 °F 65% 29.95 in 10.0 mi ENE 8.1 mph - N/A   Mostly Cloudy
1:55 PM 80.4 °F 82.4 °F 65.8 °F 61% 29.93 in 10.0 mi NE 9.2 mph - N/A   Mostly Cloudy
2:55 PM 80.6 °F 82.8 °F 66.4 °F 62% 29.92 in 10.0 mi East 12.7 mph - N/A   Clear
3:55 PM 79.2 °F - 67.3 °F 67% 29.92 in 10.0 mi East 15.0 mph - N/A   Mostly Cloudy
4:55 PM 75.7 °F - 66.7 °F 74% 29.93 in 10.0 mi East 12.7 mph - N/A   Mostly Cloudy
5:55 PM 74.3 °F - 64.9 °F 72% 29.93 in 10.0 mi East 10.4 mph - N/A   Clear
6:50 PM 71.6 °F - 64.4 °F 78% 29.94 in 10.0 mi Calm Calm - N/A Rain Light Rain
6:55 PM 72.5 °F - 64.2 °F 75% 29.95 in 10.0 mi Calm Calm - 0.00 in Rain Light Rain
6:59 PM 73.4 °F - 64.4 °F 73% 29.95 in 10.0 mi Calm Calm - N/A   Clear
7:55 PM 70.9 °F - 63.7 °F 78% 29.96 in 10.0 mi Calm Calm - 0.00 in   Clear
8:55 PM 68.9 °F - 63.5 °F 83% 29.98 in 10.0 mi WSW 3.5 mph - N/A   Clear
9:55 PM 68.5 °F - 63.7 °F 84% 29.98 in 10.0 mi Calm Calm - N/A   Clear
10:55 PM 69.3 °F - 64.4 °F 84% 29.97 in 10.0 mi South 3.5 mph - N/A   Clear
11:55 PM 69.4 °F - 64.2 °F 83% 29.96 in 10.0 mi Calm Calm - N/A   Partly Cloudy